Weather History for Bentonville, AR

Change the Weather History Date:

Friday, October 19, 2012

  Actual Average Record
Temperature  
Mean Temperature 51 °F -  
Max Temperature 60 °F 68 °F 87 °F (1950)
Min Temperature 42 °F 41 °F 29 °F (1989)
Degree Days  
Heating Degree Days 14    
Growing Degree Days 1 (Base 50)    
Moisture  
Dew Point 33 °F    
Average Humidity 47    
Maximum Humidity 81    
Minimum Humidity 29    
Precipitation  
Precipitation 0.00 in - - ()
Sea Level Pressure  
Sea Level Pressure 29.81 in    
Wind  
Wind Speed 10 mph (WNW)    
Max Wind Speed 18 mph    
Max Gust Speed 32 mph    
Visibility 10 miles    
Events      
Averages and records for this station are not official NWS values.
T = Trace of Precipitation, MM = Missing Value Source: NWS Daily Summary

Daily Weather History Graph

Daily Weather History Graph

Search for Another Location

Airport:

Trip Planner

Search our weather history database for the weather conditions in past years. The results will help you decide how hot, cold, wet, or windy it might be!

Date:

Astronomy

Oct. 19, 2012 Rise Set
Actual Time 7:28 AM CDT 6:34 PM CDT
Civil Twilight 7:01 AM CDT 7:00 PM CDT
Nautical Twilight 6:31 AM CDT 7:30 PM CDT
Astronomical Twilight 6:02 AM CDT 8:00 PM CDT
Moon 12:05 PM CDT (10/19) 10:19 PM CDT (10/19)
Length of Visible Light 11h 58m
Length of Day
11h 06m
Waxing Crescent, 24% of the Moon is Illuminated
Oct 19
Waxing Crescent
Oct 21
First Quarter
Oct 29
Full
Nov 6
Last Quarter
Nov 13
New

Hourly Weather History & Observations

Time (CDT) Temp. Windchill Dew Point Humidity Pressure Visibility Wind Dir Wind Speed Gust Speed Precip Events Conditions
12:15 AM 57.2 °F - 24.8 °F 29% 29.77 in 5.0 mi West 10.4 mph - N/A   Overcast
12:35 AM 57.2 °F - 24.8 °F 29% 29.76 in 5.0 mi West 10.4 mph - N/A   Mostly Cloudy
12:55 AM 57.2 °F - 24.8 °F 29% 29.76 in 5.0 mi West 10.4 mph - N/A   Partly Cloudy
1:15 AM 55.4 °F - 24.8 °F 31% 29.76 in 5.0 mi West 10.4 mph - N/A   Clear
1:55 AM 55.4 °F - 26.6 °F 33% 29.76 in 6.0 mi West 12.7 mph - N/A   Clear
2:15 AM 55.4 °F - 26.6 °F 33% 29.76 in 7.0 mi West 13.8 mph - N/A   Clear
2:35 AM 55.4 °F - 26.6 °F 33% 29.76 in 8.0 mi West 11.5 mph - N/A   Clear
2:55 AM 53.6 °F - 28.4 °F 38% 29.76 in 9.0 mi West 9.2 mph - N/A   Clear
3:15 AM 51.8 °F - 28.4 °F 41% 29.76 in 10.0 mi West 8.1 mph - N/A   Clear
3:35 AM 51.8 °F - 28.4 °F 41% 29.76 in 10.0 mi West 8.1 mph - N/A   Clear
4:15 AM 51.8 °F - 28.4 °F 41% 29.75 in 10.0 mi West 11.5 mph - N/A   Clear
4:35 AM 51.8 °F - 28.4 °F 41% 29.75 in 10.0 mi West 9.2 mph - N/A   Clear
4:55 AM 51.8 °F - 28.4 °F 41% 29.75 in 10.0 mi West 9.2 mph - N/A   Clear
5:16 AM 51.8 °F - 28.4 °F 41% 29.76 in 10.0 mi West 9.2 mph - N/A   Clear
5:35 AM 50.0 °F - 28.4 °F 43% 29.76 in 10.0 mi West 11.5 mph - N/A   Clear
5:55 AM 50.0 °F - 30.2 °F 47% 29.76 in 10.0 mi West 9.2 mph - N/A   Clear
6:35 AM 50.0 °F - 30.2 °F 47% 29.76 in 10.0 mi West 9.2 mph - N/A   Clear
6:55 AM 50.0 °F - 30.2 °F 47% 29.77 in 10.0 mi WNW 12.7 mph 19.6 mph N/A   Clear
7:15 AM 50.0 °F - 30.2 °F 47% 29.77 in 10.0 mi WNW 16.1 mph 21.9 mph N/A   Clear
7:36 AM 50.0 °F - 30.2 °F 47% 29.78 in 10.0 mi WNW 12.7 mph 23.0 mph N/A   Clear
7:55 AM 50.0 °F - 32.0 °F 50% 29.79 in 10.0 mi West 11.5 mph - N/A   Clear
8:35 AM 50.0 °F - 30.2 °F 47% 29.80 in 10.0 mi West 8.1 mph - N/A   Clear
8:55 AM 51.8 °F - 30.2 °F 44% 29.80 in 10.0 mi WNW 11.5 mph - N/A   Clear
9:15 AM 51.8 °F - 30.2 °F 44% 29.81 in 10.0 mi WNW 16.1 mph 21.9 mph N/A   Clear
9:35 AM 51.8 °F - 30.2 °F 44% 29.82 in 10.0 mi NW 18.4 mph 32.2 mph N/A   Clear
9:56 AM 53.6 °F - 32.0 °F 44% 29.82 in 10.0 mi WNW 18.4 mph 24.2 mph N/A   Clear
10:15 AM 53.6 °F - 32.0 °F 44% 29.83 in 10.0 mi WNW 17.3 mph 24.2 mph N/A   Clear
10:35 AM 53.6 °F - 32.0 °F 44% 29.84 in 10.0 mi NW 16.1 mph 27.6 mph N/A   Clear
10:55 AM 53.6 °F - 32.0 °F 44% 29.84 in 10.0 mi NW 16.1 mph 26.5 mph N/A   Partly Cloudy
11:15 AM 55.4 °F - 33.8 °F 44% 29.84 in 10.0 mi NW 18.4 mph 24.2 mph N/A   Scattered Clouds
11:35 AM 55.4 °F - 33.8 °F 44% 29.85 in 10.0 mi NW 17.3 mph 24.2 mph N/A   Overcast
11:55 AM 55.4 °F - 33.8 °F 44% 29.85 in 10.0 mi NW 12.7 mph 24.2 mph N/A   Scattered Clouds
12:15 PM 57.2 °F - 33.8 °F 41% 29.85 in 10.0 mi WNW 13.8 mph 23.0 mph N/A   Mostly Cloudy
12:55 PM 57.2 °F - 35.6 °F 44% 29.85 in 10.0 mi West 18.4 mph 24.2 mph N/A   Scattered Clouds
1:16 PM 57.2 °F - 33.8 °F 41% 29.85 in 10.0 mi West 12.7 mph - N/A   Clear
1:35 PM 57.2 °F - 35.6 °F 44% 29.84 in 10.0 mi WNW 13.8 mph 23.0 mph N/A   Clear
1:55 PM 59.0 °F - 35.6 °F 42% 29.84 in 9.0 mi WNW 11.5 mph 19.6 mph N/A   Clear
2:56 PM 60.8 °F - 35.6 °F 39% 29.83 in 10.0 mi NW 16.1 mph 20.7 mph N/A   Clear
3:15 PM 60.8 °F - 35.6 °F 39% 29.83 in 10.0 mi WNW 13.8 mph 20.7 mph N/A   Clear
3:35 PM 60.8 °F - 35.6 °F 39% 29.83 in 10.0 mi NW 10.4 mph 21.9 mph N/A   Clear
3:55 PM 60.8 °F - 37.4 °F 42% 29.83 in 10.0 mi WNW 12.7 mph - N/A   Clear
4:15 PM 60.8 °F - 37.4 °F 42% 29.83 in 10.0 mi WNW 11.5 mph 21.9 mph N/A   Clear
4:35 PM 60.8 °F - 35.6 °F 39% 29.83 in 10.0 mi NW 13.8 mph - N/A   Clear
4:56 PM 60.8 °F - 37.4 °F 42% 29.83 in 10.0 mi WNW 11.5 mph 17.3 mph N/A   Clear
5:15 PM 60.8 °F - 35.6 °F 39% 29.83 in 10.0 mi WNW 11.5 mph - N/A   Clear
5:35 PM 60.8 °F - 35.6 °F 39% 29.83 in 10.0 mi NW 6.9 mph 16.1 mph N/A   Clear
6:15 PM 59.0 °F - 35.6 °F 42% 29.84 in 10.0 mi WNW 8.1 mph - N/A   Clear
6:35 PM 57.2 °F - 35.6 °F 44% 29.84 in 10.0 mi WNW 5.8 mph - N/A   Clear
7:15 PM 53.6 °F - 35.6 °F 51% 29.84 in 10.0 mi Calm Calm - N/A   Clear
7:35 PM 51.8 °F - 35.6 °F 54% 29.85 in 10.0 mi Calm Calm - N/A   Clear
7:55 PM 50.0 °F - 35.6 °F 58% 29.85 in 10.0 mi West 3.5 mph - N/A   Clear
8:15 PM 50.0 °F - 35.6 °F 58% 29.85 in 10.0 mi SW 3.5 mph - N/A   Clear
8:35 PM 48.2 °F - 37.4 °F 66% 29.85 in 10.0 mi Calm Calm - N/A   Clear
8:55 PM 48.2 °F - 35.6 °F 62% 29.86 in 10.0 mi Calm Calm - N/A   Clear
9:35 PM 46.4 °F - 35.6 °F 66% 29.86 in 10.0 mi Calm Calm - N/A   Clear
9:55 PM 44.6 °F - 35.6 °F 71% 29.87 in 10.0 mi Calm Calm - N/A   Clear
10:35 PM 44.6 °F 43.1 °F 37.4 °F 76% 29.87 in 10.0 mi SSE 3.5 mph - N/A   Clear
10:55 PM 44.6 °F - 37.4 °F 76% 29.86 in 10.0 mi Calm Calm - N/A   Clear
11:15 PM 44.6 °F - 37.4 °F 76% 29.86 in 10.0 mi Calm Calm - N/A   Clear
11:36 PM 42.8 °F - 35.6 °F 76% 29.87 in 10.0 mi Calm Calm - N/A   Clear
11:55 PM 42.8 °F - 37.4 °F 81% 29.86 in 10.0 mi Calm Calm - N/A   Clear